Printer-friendly version

IAU Minor Planet Center

Minor Planet Center

MPEC 2007-E57 : 2007 EC26

The following Minor Planet Electronic Circular may be linked-to from your own Web pages, but must not otherwise be redistributed electronically.


Read MPEC 2007-E56 Read MPEC 2007-E58


M.P.E.C. 2007-E57                                Issued 2007 Mar. 12, 20:54 UT

     The Minor Planet Electronic Circulars contain information on unusual
         minor planets and routine data on comets.  They are published
   on behalf of Commission 20 of the International Astronomical Union by the
          Minor Planet Center, Smithsonian Astrophysical Observatory,
                          Cambridge, MA 02138, U.S.A.

             Prepared using the Tamkin Foundation Computer Network

                              MPC@CFA.HARVARD.EDU
          URL http://cfa-www.harvard.edu/iau/mpc.html  ISSN 1523-6714

                                   2007 EC26

Observations:
     K07E26C* C2007 03 10.16455 07 03 02.77 +44 43 24.3          22.0 V EE057G96
     K07E26C  C2007 03 10.17217 07 03 02.73 +44 43 23.2          22.2 V EE057G96
     K07E26C  C2007 03 10.17982 07 03 02.66 +44 43 22.1          22.4 V EE057G96
     K07E26C  C2007 03 10.18744 07 03 02.59 +44 43 20.9          22.5 V EE057G96
     K07E26C HC2007 03 11.23589 07 02 57.48 +44 40 47.7                 EE057291
     K07E26C HC2007 03 11.24842 07 02 57.33 +44 40 44.9                 EE057291
     K07E26C HC2007 03 11.26295 07 02 57.32 +44 40 42.9                 EE057291
     K07E26C HC2007 03 12.19432 07 02 54.26 +44 38 24.5                 EE057291
     K07E26C HC2007 03 12.20921 07 02 54.33 +44 38 21.9                 EE057291
     K07E26C HC2007 03 12.22340 07 02 54.24 +44 38 17.3                 EE057291

Observer details:
291 LPL/Spacewatch II.  Observer T. H. Bressi.  1.8-m f/2.7 reflector + CCD.
G96 Mt. Lemmon Survey.  Observer R. A. Kowalski.  Measurers E. C. Beshore,
    E. J. Christensen, G. J. Garradd, A. R. Gibbs, A. D. Grauer, R. E. Hill,
    R. A. Kowalski, S. M. Larson, R. H. McNaught.  1.5-m reflector + CCD.

Orbital elements:
2007 EC26
Epoch 2007 Apr. 10.0 TT = JDT 2454200.5                 MPC
M 318.46067              (2000.0)            P               Q
n   0.10422827     Peri.  151.64771     -0.67756109     +0.60453512
a   4.4717656      Node    71.98927     -0.73011439     -0.48430244
e   0.5048129      Incl.   26.13247     -0.08856608     -0.63244639
P   9.46           H   16.0           G   0.15           U   9
Residuals in seconds of arc
070310 G96  0.1+  0.0     070311 291  0.5+  0.5+    070312 291  0.6+  0.7+
070310 G96  0.2+  0.0     070311 291  0.5-  0.4-    070312 291  0.2+  1.6-
070310 G96  0.0   0.1+    070311 291  0.2+  0.1-
070310 G96  0.1-  0.0     070312 291  0.7-  1.0+

Ephemeris:
2007 EC26                a,e,i = 4.47, 0.50, 26                  q = 2.2144
Date    TT    R. A. (2000) Decl.     Delta      r     Elong.  Phase     V
2007 03 11    07 02.98   +44 41.4    3.319    3.782   110.4    14.2    22.3
2007 03 21    07 03.54   +44 14.0    3.409    3.736   101.4    15.2    22.4
2007 03 31    07 06.62   +43 42.4    3.503    3.689    92.8    15.7    22.4
2007 04 10    07 11.98   +43 08.0    3.597    3.642    84.6    15.9    22.5
2007 04 20    07 19.38   +42 31.3    3.688    3.595    76.9    15.8    22.5
2007 04 30    07 28.57   +41 52.7    3.773    3.548    69.5    15.4    22.5
2007 05 10    07 39.30   +41 11.9    3.850    3.501    62.5    14.8    22.5

Kyle E. Smalley              (C) Copyright 2007 MPC           M.P.E.C. 2007-E57

Read MPEC 2007-E56 Read MPEC 2007-E58


Our Web policy. Index to the CBAT/MPC/ICQ pages.


Valid HTML 4.01!